When you browse on this site, cookies collect data to enhance your experience and personalize the content and advertising you see.
Visit our Privacy Policy to learn more. By continuing to use the site, you agree to this use of cookies and data.
  • In Lithuania
  • List of Countries
  • For 7 days
  • Water Temperature
  • Weather Map
  • Weather Widgets
  • user-avatar
    Login

    Hourly Weather Luksor

    Today, 22 February, Saturday

    Time Temperature Precipitation Wind Pressure Humidity
    00:00 +14°C° 0 mm 3 mps 755 mmHg 42%
    01:00 +13°C° 0 mm 3 mps 754 mmHg 45%
    02:00 +13°C° 0 mm 2 mps 754 mmHg 48%
    03:00 +12°C° 0 mm 2 mps 754 mmHg 52%
    04:00 +12°C° 0 mm 2 mps 755 mmHg 55%
    05:00 +10°C° 0 mm 2 mps 755 mmHg 58%
    06:00 +12°C° 0 mm 2 mps 755 mmHg 55%
    07:00 +14°C° 0 mm 2 mps 755 mmHg 51%
    08:00 +15°C° 0 mm 2 mps 756 mmHg 45%
    09:00 +17°C° 0 mm 2 mps 756 mmHg 40%
    10:00 +19°C° 0 mm 3 mps 756 mmHg 36%
    11:00 +20°C° 0 mm 3 mps 756 mmHg 31%
    12:00 +21°C° 0 mm 4 mps 755 mmHg 27%
    13:00 +22°C° 0 mm 4 mps 755 mmHg 24%
    14:00 +23°C° 0 mm 5 mps 754 mmHg 21%
    15:00 +23°C° 0 mm 5 mps 754 mmHg 21%
    16:00 +23°C° 0 mm 5 mps 754 mmHg 21%
    17:00 +22°C° 0 mm 5 mps 754 mmHg 21%
    18:00 +20°C° 0 mm 5 mps 755 mmHg 25%
    19:00 +18°C° 0 mm 4 mps 755 mmHg 29%
    20:00 +15°C° 0 mm 4 mps 755 mmHg 32%
    21:00 +15°C° 0 mm 4 mps 755 mmHg 34%
    22:00 +14°C° 0 mm 3 mps 756 mmHg 36%
    23:00 +13°C° 0 mm 3 mps 756 mmHg 38%

    Tomorrow, 23 February, Sunday

    Time Temperature Precipitation Wind Pressure Humidity
    00:00 +12°C° 0 mm 3 mps 756 mmHg 41%
    01:00 +12°C° 0 mm 2 mps 755 mmHg 44%
    02:00 +11°C° 0 mm 1 mps 755 mmHg 47%
    03:00 +11°C° 0 mm 1 mps 755 mmHg 49%
    04:00 +10°C° 0 mm 1 mps 755 mmHg 51%
    05:00 +10°C° 0 mm 1 mps 755 mmHg 53%
    06:00 +12°C° 0 mm 1 mps 755 mmHg 48%
    07:00 +13°C° 0 mm 1 mps 755 mmHg 44%
    08:00 +15°C° 0 mm 1 mps 755 mmHg 40%
    09:00 +18°C° 0 mm 1 mps 755 mmHg 36%
    10:00 +19°C° 0 mm 2 mps 755 mmHg 32%
    11:00 +20°C° 0 mm 2 mps 755 mmHg 28%
    12:00 +21°C° 0 mm 3 mps 754 mmHg 25%
    13:00 +22°C° 0 mm 4 mps 753 mmHg 23%
    14:00 +23°C° 0 mm 4 mps 753 mmHg 20%
    15:00 +23°C° 0 mm 4 mps 753 mmHg 20%
    16:00 +23°C° 0 mm 4 mps 753 mmHg 20%
    17:00 +22°C° 0 mm 5 mps 753 mmHg 20%
    18:00 +21°C° 0 mm 4 mps 753 mmHg 24%
    19:00 +19°C° 0 mm 4 mps 753 mmHg 27%
    20:00 +17°C° 0 mm 4 mps 754 mmHg 30%
    21:00 +17°C° 0 mm 3 mps 754 mmHg 32%
    22:00 +16°C° 0 mm 3 mps 754 mmHg 34%
    23:00 +16°C° 0 mm 3 mps 754 mmHg 37%

    Day after tomorrow, 24 February, Monday

    Time Temperature Precipitation Wind Pressure Humidity
    00:00 +14°C° 0 mm 3 mps 754 mmHg 39%
    01:00 +14°C° 0 mm 2 mps 753 mmHg 41%
    02:00 +14°C° 0 mm 2 mps 753 mmHg 43%
    03:00 +13°C° 0 mm 2 mps 753 mmHg 45%
    04:00 +12°C° 0 mm 2 mps 753 mmHg 48%
    05:00 +12°C° 0 mm 1 mps 752 mmHg 51%
    06:00 +13°C° 0 mm 2 mps 753 mmHg 49%
    07:00 +13°C° 0 mm 3 mps 753 mmHg 47%
    08:00 +14°C° 0 mm 4 mps 753 mmHg 45%
    09:00 +15°C° 0 mm 4 mps 753 mmHg 41%
    10:00 +18°C° 0 mm 4 mps 753 mmHg 37%
    11:00 +20°C° 0 mm 5 mps 753 mmHg 33%
    12:00 +20°C° 0 mm 5 mps 752 mmHg 30%
    13:00 +21°C° 0 mm 6 mps 752 mmHg 27%
    14:00 +22°C° 0 mm 6 mps 751 mmHg 24%
    15:00 +21°C° 0 mm 6 mps 751 mmHg 26%
    16:00 +20°C° 0 mm 6 mps 752 mmHg 27%
    17:00 +18°C° 0 mm 7 mps 752 mmHg 29%
    18:00 +16°C° 0 mm 7 mps 752 mmHg 38%
    19:00 +14°C° 0 mm 7 mps 753 mmHg 48%
    20:00 +11°C° 0 mm 8 mps 754 mmHg 57%
    21:00 +10°C° 0 mm 7 mps 754 mmHg 61%
    22:00 +9°C° 0 mm 6 mps 754 mmHg 64%
    23:00 +9°C° 0 mm 5 mps 754 mmHg 68%

    25 February, Tuesday

    Time Temperature Precipitation Wind Pressure Humidity
    00:00 +8°C° 0 mm 5 mps 754 mmHg 70%
    01:00 +8°C° 0 mm 5 mps 754 mmHg 72%
    02:00 +8°C° 0 mm 5 mps 754 mmHg 74%
    03:00 +8°C° 0 mm 5 mps 754 mmHg 75%
    04:00 +7°C° 0 mm 5 mps 754 mmHg 76%
    05:00 +7°C° 0 mm 5 mps 754 mmHg 77%
    06:00 +8°C° 0 mm 6 mps 754 mmHg 73%
    07:00 +9°C° 0 mm 7 mps 755 mmHg 70%
    08:00 +10°C° 0 mm 9 mps 755 mmHg 67%
    09:00 +12°C° 0 mm 9 mps 755 mmHg 58%
    10:00 +15°C° 0 mm 9 mps 755 mmHg 50%
    11:00 +17°C° 0 mm 9 mps 755 mmHg 42%
    12:00 +18°C° 0 mm 9 mps 755 mmHg 38%
    13:00 +19°C° 0 mm 9 mps 754 mmHg 34%
    14:00 +21°C° 0 mm 9 mps 754 mmHg 30%
    15:00 +21°C° 0 mm 9 mps 754 mmHg 30%
    16:00 +21°C° 0 mm 8 mps 754 mmHg 30%
    17:00 +20°C° 0 mm 8 mps 754 mmHg 29%
    18:00 +19°C° 0 mm 6 mps 755 mmHg 35%
    19:00 +16°C° 0 mm 5 mps 755 mmHg 40%
    20:00 +14°C° 0 mm 4 mps 756 mmHg 45%
    21:00 +14°C° 0 mm 4 mps 756 mmHg 51%
    22:00 +13°C° 0 mm 3 mps 756 mmHg 57%
    23:00 +12°C° 0 mm 3 mps 756 mmHg 63%

    26 February, Wednesday

    Time Temperature Precipitation Wind Pressure Humidity
    00:00 +12°C° 0 mm 3 mps 756 mmHg 66%
    01:00 +12°C° 0 mm 2 mps 756 mmHg 69%
    02:00 +12°C° 0 mm 2 mps 756 mmHg 73%
    03:00 +10°C° 0 mm 2 mps 756 mmHg 74%
    04:00 +10°C° 0 mm 2 mps 756 mmHg 76%
    05:00 +9°C° 0 mm 2 mps 756 mmHg 77%
    06:00 +11°C° 0 mm 1 mps 756 mmHg 70%
    07:00 +13°C° 0 mm 1 mps 756 mmHg 62%
    08:00 +14°C° 0 mm 1 mps 757 mmHg 54%
    09:00 +17°C° 0 mm 2 mps 757 mmHg 48%
    10:00 +19°C° 0 mm 2 mps 757 mmHg 41%
    11:00 +21°C° 0 mm 2 mps 757 mmHg 34%
    12:00 +23°C° 0 mm 2 mps 756 mmHg 30%
    13:00 +24°C° 0 mm 2 mps 755 mmHg 26%
    14:00 +25°C° 0 mm 2 mps 754 mmHg 23%
    15:00 +25°C° 0 mm 2 mps 754 mmHg 22%
    16:00 +25°C° 0 mm 2 mps 754 mmHg 22%
    17:00 +25°C° 0 mm 2 mps 754 mmHg 21%
    18:00 +23°C° 0 mm 2 mps 754 mmHg 26%
    19:00 +19°C° 0 mm 2 mps 755 mmHg 30%
    20:00 +17°C° 0 mm 2 mps 755 mmHg 35%
    21:00 +16°C° 0 mm 2 mps 755 mmHg 38%
    22:00 +15°C° 0 mm 2 mps 755 mmHg 42%
    23:00 +15°C° 0 mm 2 mps 756 mmHg 46%

    27 February, Thursday

    Time Temperature Precipitation Wind Pressure Humidity
    00:00 +14°C° 0 mm 1 mps 756 mmHg 50%
    01:00 +13°C° 0 mm 1 mps 755 mmHg 55%
    02:00 +12°C° 0 mm 1 mps 755 mmHg 59%
    03:00 +12°C° 0 mm 1 mps 755 mmHg 62%
    04:00 +11°C° 0 mm 1 mps 755 mmHg 65%
    05:00 +10°C° 0 mm 0 mps 755 mmHg 68%
    06:00 +12°C° 0 mm 0 mps 755 mmHg 61%
    07:00 +14°C° 0 mm 0 mps 755 mmHg 53%
    08:00 +16°C° 0 mm 0 mps 756 mmHg 45%
    09:00 +18°C° 0 mm 0 mps 756 mmHg 39%
    10:00 +21°C° 0 mm 0 mps 755 mmHg 32%
    11:00 +23°C° 0 mm 0 mps 755 mmHg 26%
    12:00 +26°C° 0 mm 1 mps 754 mmHg 23%
    13:00 +27°C° 0 mm 1 mps 754 mmHg 20%
    14:00 +29°C° 0 mm 2 mps 753 mmHg 17%
    15:00 +28°C° 0 mm 2 mps 753 mmHg 17%
    16:00 +28°C° 0 mm 2 mps 753 mmHg 16%
    17:00 +28°C° 0 mm 3 mps 753 mmHg 16%
    18:00 +26°C° 0 mm 3 mps 753 mmHg 18%
    19:00 +24°C° 0 mm 2 mps 753 mmHg 20%
    20:00 +20°C° 0 mm 2 mps 753 mmHg 22%
    21:00 +19°C° 0 mm 2 mps 753 mmHg 26%
    22:00 +19°C° 0 mm 1 mps 754 mmHg 29%
    23:00 +16°C° 0 mm 1 mps 754 mmHg 33%
    Show more